Weather in Shoksha

Russia / Republic of Karelia     61°27′29″N   35°02′35″E
temp.,
°C
wind,
m/s
gust,
m/s
humid.,
%
clouds,
%
prec.,
mm/h
press.,
hPa
HPBL,
m
29 june, wed
wed2900:00+12ese37703 0.0 102793
03:00+10sse23780 0.0 102747
06:00+13ese12670 0.0 102797
09:00+16e33540 0.0 1026633
12:00+17ene33495 0.0 1025830
15:00+17ne3344100 0.0 1025732
18:00+17nne22435 0.0 1023282
21:00+14n1158100 0.0 102211
30 june, thu
thu3000:00+12wsw1153100 0.0 102210
03:00+12wsw225044 0.0 102212
06:00+14nw225485 0.0 102254
09:00+17nnw235163 0.0 1022253
12:00+20n244680 0.0 1022431
15:00+22n244317 0.0 1021468
18:00+22n244832 0.0 1020257
21:00+19wnw22605 0.0 102012
1 july, fri
fri100:00+17ne22700 0.0 102111
03:00+15ssw22774 0.0 102212
06:00+17ssw11730 0.0 102256
09:00+22sw01590 0.0 1022354
12:00+23ne225624 0.0 1022725
15:00+23ene235452 0.0 1021562
18:00+24ese23511 0.0 1020307
21:00+23ssw33648 0.0 102043
2 july, sat
sat200:00+20wnw4964100 0.0 1020122
03:00+19wnw356696 0.0 101962
06:00+18nw357398 0.0 1020120
09:00+19n2470100 0.0 1020172
12:00+22nne2360100 0.0 1020388
15:00+22nne1261100 0.0 1019178
18:00+23n1258100 0.0 1018175
21:00+19wnw377798 0.0 1018162
3 july, sun
sun300:00+18wnw228396 0.0 101814
03:00+16w118963 0.0 101811
06:00+18sw1279100 0.0 101772
09:00+22s1263100 0.0 1016475
12:00+23ese3358100 0.0 10161035
15:00+24e3355100 0.0 10151335
18:00+24s235760 0.0 1014947
21:00+21sw247413 0.3 101469